Location: Ch�teau-Arnoux
(44.0814°N, 6.0027°E)
Time: 21:38:25
(UTC+00:00)

ATLAS CENTAUR R/B - Pass Details

Date: 15 November 2019
Orbit: 457 x 691 km, 64.7° (Epoch: 30 November)

Event Time Altitude Azimuth Distance (km) Brightness Sun altitude
Rises 04:41:23 0° 182° (S) 3,044 5.2 -19.6°
Reaches altitude 10° 04:44:01 10° 170° (S) 2,136 4.5 -19.1°
Maximum altitude 04:48:05 27° 114° (ESE) 1,319 4.0 -18.4°
Drops below altitude 10° 04:52:07 10° 57° (ENE) 2,115 5.0 -17.7°
Sets 04:54:41 0° 46° (NE) 3,008 5.6 -17.2°
